TimeCST,TemperatureF,Dew PointF,Humidity,Sea Level PressureIn,VisibilityMPH,Wind Direction,Wind SpeedMPH,Gust SpeedMPH,PrecipitationIn,Events,Conditions,WindDirDegrees,DateUTC
12:15 AM,28.4,19.6,70,30.22,10.0,WNW,6.9,-,N/A,,Overcast,300,2012-11-24 06:15:00
12:35 AM,28.4,19.6,70,30.22,10.0,NW,6.9,-,N/A,,Overcast,310,2012-11-24 06:35:00
12:55 AM,28.4,19.2,69,30.22,10.0,WNW,10.4,16.1,N/A,,Overcast,300,2012-11-24 06:55:00
1:15 AM,28.4,19.4,69,30.22,10.0,NW,6.9,-,N/A,,Overcast,310,2012-11-24 07:15:00
1:35 AM,28.4,19.2,69,30.22,10.0,NW,8.1,-,N/A,,Overcast,320,2012-11-24 07:35:00
1:55 AM,28.0,18.5,67,30.22,10.0,NW,9.2,-,N/A,,Overcast,320,2012-11-24 07:55:00
2:15 AM,28.2,18.9,68,30.23,10.0,NW,5.8,-,N/A,,Overcast,310,2012-11-24 08:15:00
2:35 AM,28.0,18.7,68,30.23,10.0,NW,8.1,16.1,N/A,,Overcast,310,2012-11-24 08:35:00
2:55 AM,28.0,19.0,69,30.23,10.0,NW,10.4,-,N/A,,Overcast,320,2012-11-24 08:55:00
3:15 AM,28.0,19.0,69,30.23,10.0,WNW,9.2,-,N/A,,Overcast,290,2012-11-24 09:15:00
3:35 AM,28.0,19.2,70,30.23,10.0,WNW,8.1,-,N/A,,Overcast,300,2012-11-24 09:35:00
3:55 AM,28.0,19.0,69,30.22,10.0,NW,6.9,-,N/A,,Overcast,310,2012-11-24 09:55:00
4:15 AM,28.0,19.0,69,30.23,10.0,WNW,10.4,-,N/A,,Overcast,300,2012-11-24 10:15:00
4:35 AM,27.9,18.9,69,30.23,10.0,WNW,9.2,-,N/A,,Overcast,300,2012-11-24 10:35:00
4:55 AM,27.9,18.9,69,30.23,10.0,NW,5.8,-,N/A,,Overcast,310,2012-11-24 10:55:00
5:15 AM,27.5,18.7,69,30.24,10.0,NW,5.8,-,N/A,,Overcast,310,2012-11-24 11:15:00
5:35 AM,27.5,18.3,68,30.24,10.0,WNW,10.4,-,N/A,,Overcast,290,2012-11-24 11:35:00
5:55 AM,27.3,18.3,69,30.25,10.0,NW,6.9,-,N/A,,Overcast,320,2012-11-24 11:55:00
6:15 AM,27.3,18.3,69,30.25,10.0,WNW,8.1,-,N/A,,Overcast,300,2012-11-24 12:15:00
6:35 AM,27.1,18.3,69,30.25,10.0,NW,6.9,-,N/A,,Overcast,310,2012-11-24 12:35:00
6:55 AM,27.1,18.5,70,30.24,10.0,WNW,8.1,-,N/A,,Overcast,290,2012-11-24 12:55:00
7:15 AM,27.1,18.5,70,30.25,10.0,NW,4.6,-,N/A,,Overcast,310,2012-11-24 13:15:00
7:35 AM,27.3,18.7,70,30.25,10.0,WNW,5.8,-,N/A,,Overcast,290,2012-11-24 13:35:00
7:55 AM,27.5,19.0,71,30.26,10.0,WNW,3.5,-,N/A,,Overcast,300,2012-11-24 13:55:00
8:15 AM,27.5,19.2,71,30.26,10.0,WNW,4.6,-,N/A,,Overcast,290,2012-11-24 14:15:00
8:35 AM,27.5,18.9,70,30.27,10.0,NW,5.8,-,N/A,,Overcast,310,2012-11-24 14:35:00
8:55 AM,28.0,18.9,68,30.27,10.0,WNW,5.8,-,N/A,,Overcast,300,2012-11-24 14:55:00
9:15 AM,28.4,19.0,68,30.27,10.0,WNW,5.8,-,N/A,,Overcast,300,2012-11-24 15:15:00
9:35 AM,28.0,19.0,69,30.28,10.0,West,5.8,-,N/A,,Overcast,270,2012-11-24 15:35:00
9:55 AM,28.0,18.9,68,30.28,10.0,Calm,Calm,-,N/A,,Overcast,0,2012-11-24 15:55:00
10:15 AM,28.6,19.6,69,30.28,10.0,SW,5.8,-,N/A,,Overcast,230,2012-11-24 16:15:00
10:35 AM,28.9,19.8,69,30.27,10.0,NW,3.5,-,N/A,,Overcast,310,2012-11-24 16:35:00
10:55 AM,29.3,19.9,68,30.27,10.0,SSW,4.6,-,N/A,,Overcast,210,2012-11-24 16:55:00
11:15 AM,29.5,19.9,68,30.27,10.0,WSW,6.9,-,N/A,,Overcast,240,2012-11-24 17:15:00
11:35 AM,29.3,19.8,68,30.25,10.0,WNW,4.6,-,N/A,,Overcast,290,2012-11-24 17:35:00
11:55 AM,29.8,19.8,66,30.24,10.0,Calm,Calm,-,N/A,,Overcast,0,2012-11-24 17:55:00
12:15 PM,30.6,20.5,66,30.24,10.0,WSW,8.1,-,N/A,,Overcast,250,2012-11-24 18:15:00
12:35 PM,31.3,20.1,63,30.23,10.0,WSW,6.9,-,N/A,,Overcast,240,2012-11-24 18:35:00
12:55 PM,31.8,20.5,63,30.22,10.0,SW,8.1,-,N/A,,Mostly Cloudy,220,2012-11-24 18:55:00
1:15 PM,32.0,20.1,62,30.21,10.0,SW,6.9,-,N/A,,Scattered Clouds,230,2012-11-24 19:15:00
1:35 PM,31.8,20.1,62,30.20,10.0,Calm,Calm,-,N/A,,Clear,0,2012-11-24 19:35:00
1:55 PM,32.0,20.1,62,30.19,10.0,West,8.1,-,N/A,,Clear,260,2012-11-24 19:55:00
2:15 PM,32.4,20.3,61,30.18,10.0,SW,4.6,-,N/A,,Clear,220,2012-11-24 20:15:00
2:35 PM,32.9,20.7,61,30.17,10.0,SSW,8.1,-,N/A,,Clear,210,2012-11-24 20:35:00
2:55 PM,32.9,20.8,61,30.17,10.0,SSW,5.8,-,N/A,,Clear,200,2012-11-24 20:55:00
3:15 PM,32.4,21.0,63,30.17,10.0,WSW,6.9,-,N/A,,Clear,240,2012-11-24 21:15:00
3:35 PM,32.0,21.4,65,30.16,10.0,SW,6.9,-,N/A,,Clear,220,2012-11-24 21:35:00
3:55 PM,31.6,21.0,65,30.15,10.0,SW,6.9,-,N/A,,Clear,230,2012-11-24 21:55:00
4:15 PM,30.0,21.0,69,30.15,10.0,SW,6.9,-,N/A,,Clear,220,2012-11-24 22:15:00
4:35 PM,29.3,20.8,71,30.16,10.0,SW,5.8,-,N/A,,Clear,220,2012-11-24 22:35:00
4:55 PM,28.0,21.0,75,30.15,10.0,SSW,4.6,-,N/A,,Clear,210,2012-11-24 22:55:00
5:15 PM,27.3,21.2,78,30.14,10.0,South,3.5,-,N/A,,Clear,180,2012-11-24 23:15:00
5:35 PM,28.4,20.3,72,30.13,10.0,SSE,3.5,-,N/A,,Clear,160,2012-11-24 23:35:00
5:55 PM,28.2,20.8,74,30.13,10.0,South,4.6,-,N/A,,Scattered Clouds,170,2012-11-24 23:55:00
6:15 PM,27.9,21.0,75,30.12,10.0,SSE,5.8,-,N/A,,Mostly Cloudy,160,2012-11-25 00:15:00
6:35 PM,27.9,21.2,76,30.12,10.0,South,8.1,-,N/A,,Scattered Clouds,180,2012-11-25 00:35:00
6:55 PM,27.5,21.9,80,30.11,10.0,SSW,8.1,-,N/A,,Clear,200,2012-11-25 00:55:00
7:15 PM,28.4,22.5,78,30.11,10.0,South,8.1,-,N/A,,Clear,190,2012-11-25 01:15:00
7:35 PM,28.4,22.5,78,30.10,10.0,South,10.4,-,N/A,,Clear,180,2012-11-25 01:35:00
7:55 PM,28.6,22.5,78,30.09,10.0,South,9.2,-,N/A,,Clear,180,2012-11-25 01:55:00
8:15 PM,28.8,22.5,77,30.08,10.0,South,11.5,-,N/A,,Scattered Clouds,180,2012-11-25 02:15:00
8:35 PM,28.9,22.5,77,30.07,10.0,South,10.4,-,N/A,,Overcast,180,2012-11-25 02:35:00
8:55 PM,29.3,22.5,76,30.06,10.0,South,9.2,-,N/A,,Scattered Clouds,180,2012-11-25 02:55:00
9:15 PM,29.3,22.5,76,30.05,10.0,South,8.1,-,N/A,,Mostly Cloudy,170,2012-11-25 03:15:00
9:35 PM,28.9,22.6,77,30.05,10.0,South,9.2,-,N/A,,Scattered Clouds,180,2012-11-25 03:35:00
9:55 PM,28.6,22.8,79,30.05,10.0,South,11.5,-,N/A,,Clear,180,2012-11-25 03:55:00
10:15 PM,28.4,23.4,81,30.05,10.0,South,10.4,-,N/A,,Clear,180,2012-11-25 04:15:00
10:35 PM,28.8,23.7,81,30.05,10.0,South,9.2,-,N/A,,Clear,180,2012-11-25 04:35:00
10:55 PM,28.8,23.9,82,30.04,10.0,South,9.2,-,N/A,,Scattered Clouds,170,2012-11-25 04:55:00
11:15 PM,28.9,23.9,81,30.04,10.0,South,8.1,-,N/A,,Mostly Cloudy,170,2012-11-25 05:15:00
11:35 PM,28.9,24.3,83,30.04,10.0,South,8.1,-,N/A,,Mostly Cloudy,170,2012-11-25 05:35:00
11:55 PM,29.1,24.4,83,30.02,10.0,South,8.1,-,N/A,,Scattered Clouds,170,2012-11-25 05:55:00